QPF
0.00 0.01 0.01 0.03 0.10 0.12 0.09 0.06 0.03 0.02 0.01 0.01 0.01 0.01 0.02 0.02 0.05 0.07 0.08 0.06 0.06 0.09 0.11 0.08 0.08 0.09 0.11 0.15 0.12 0.12 0.09 0.11 0.12 0.14 0.15 0.17 0.19 0.23 0.27 0.29 0.25 0.24 0.22 0.17 0.10 0.07 0.06 0.07 0.08
0.00 0.01 0.02 0.09 0.14 0.09 0.06 0.05 0.03 0.01 0.00 0.00 0.00 0.00 0.01 0.02 0.03 0.05 0.07 0.06 0.05 0.06 0.07 0.07 0.08 0.07 0.09 0.10 0.08 0.09 0.10 0.12 0.12 0.12 0.16 0.20 0.25 0.30 0.32 0.31 0.24 0.17 0.14 0.10 0.06 0.05 0.04 0.04 0.05
0.00 0.00 0.04 0.12 0.09 0.05 0.04 0.04 0.02 0.00 0.00 0.00 0.00 0.00 0.01 0.03 0.04 0.05 0.06 0.05 0.04 0.04 0.05 0.06 0.04 0.05 0.07 0.08 0.07 0.07 0.10 0.13 0.12 0.12 0.17 0.24 0.30 0.31 0.31 0.27 0.22 0.14 0.12 0.10 0.09 0.06 0.04 0.05 0.06
0.00 0.02 0.04 0.08 0.06 0.03 0.02 0.02 0.01 0.00 0.00 0.01 0.00 0.01 0.02 0.04 0.04 0.05 0.06 0.03 0.02 0.04 0.05 0.06 0.03 0.03 0.04 0.07 0.06 0.06 0.09 0.12 0.14 0.19 0.24 0.27 0.25 0.20 0.22 0.20 0.17 0.12 0.11 0.08 0.07 0.05 0.04 0.06 0.06
0.02 0.06 0.06 0.06 0.03 0.02 0.01 0.00 0.00 0.01 0.00 0.00 0.00 0.02 0.03 0.05 0.05 0.04 0.04 0.03 0.02 0.04 0.07 0.05 0.04 0.03 0.04 0.05 0.05 0.06 0.11 0.13 0.14 0.16 0.20 0.20 0.16 0.13 0.12 0.11 0.10 0.08 0.08 0.07 0.07 0.05 0.04 0.04 0.05
0.06 0.10 0.11 0.06 0.03 0.01 0.00 0.00 0.00 0.00 0.00 0.00 0.00 0.01 0.04 0.05 0.03 0.04 0.03 0.03 0.02 0.03 0.05 0.05 0.03 0.04 0.04 0.05 0.05 0.08 0.13 0.13 0.13 0.11 0.10 0.11 0.10 0.09 0.09 0.08 0.08 0.06 0.06 0.07 0.07 0.06 0.05 0.04 0.05
0.07 0.06 0.09 0.03 0.02 0.01 0.00 0.00 0.00 0.01 0.02 0.00 0.00 0.02 0.03 0.03 0.02 0.03 0.02 0.01 0.01 0.02 0.03 0.04 0.04 0.03 0.03 0.05 0.05 0.06 0.10 0.14 0.13 0.12 0.11 0.10 0.09 0.09 0.08 0.07 0.08 0.07 0.06 0.06 0.07 0.06 0.04 0.04 0.04
0.05 0.02 0.01 0.01 0.02 0.02 0.00 0.00 0.01 0.02 0.01 0.00 0.00 0.01 0.02 0.02 0.02 0.02 0.02 0.01 0.01 0.03 0.02 0.02 0.03 0.04 0.04 0.06 0.06 0.06 0.09 0.14 0.16 0.16 0.14 0.13 0.12 0.12 0.09 0.07 0.09 0.08 0.08 0.06 0.07 0.06 0.04 0.03 0.03
0.02 0.01 0.01 0.01 0.01 0.01 0.00 0.00 0.00 0.00 0.00 0.00 0.01 0.01 0.01 0.01 0.01 0.02 0.03 0.03 0.04 0.04 0.02 0.02 0.02 0.03 0.05 0.05 0.08 0.10 0.10 0.10 0.14 0.20 0.19 0.17 0.17 0.21 0.13 0.10 0.11 0.10 0.10 0.08 0.08 0.07 0.05 0.04 0.03
0.02 0.02 0.00 0.00 0.00 0.00 0.00 0.00 0.00 0.01 0.01 0.00 0.02 0.01 0.01 0.01 0.01 0.02 0.02 0.02 0.04 0.04 0.02 0.02 0.01 0.02 0.03 0.04 0.11 0.17 0.15 0.12 0.14 0.20 0.22 0.20 0.19 0.19 0.16 0.17 0.14 0.13 0.12 0.13 0.10 0.08 0.08 0.06 0.06
0.01 0.02 0.01 0.00 0.00 0.00 0.00 0.00 0.00 0.01 0.01 0.01 0.02 0.01 0.01 0.01 0.02 0.02 0.01 0.01 0.01 0.02 0.01 0.02 0.02 0.03 0.04 0.04 0.08 0.12 0.15 0.15 0.15 0.18 0.19 0.20 0.18 0.20 0.21 0.21 0.19 0.19 0.15 0.15 0.14 0.09 0.07 0.08 0.09
0.00 0.00 0.00 0.00 0.00 0.00 0.01 0.00 0.00 0.00 0.01 0.01 0.01 0.00 0.00 0.01 0.01 0.01 0.01 0.01 0.01 0.01 0.01 0.01 0.02 0.03 0.04 0.04 0.06 0.06 0.11 0.14 0.16 0.17 0.17 0.20 0.19 0.20 0.20 0.20 0.19 0.20 0.16 0.16 0.17 0.14 0.12 0.13 0.08
0.00 0.00 0.00 0.00 0.00 0.00 0.00 0.00 0.00 0.00 0.00 0.00 0.01 0.00 0.00 0.01 0.01 0.00 0.00 0.00 0.00 0.01 0.02 0.02 0.02 0.04 0.04 0.06 0.07 0.05 0.08 0.09 0.12 0.15 0.15 0.15 0.16 0.18 0.20 0.19 0.18 0.15 0.16 0.16 0.18 0.16 0.15 0.13 0.09
0.00 0.00 0.00 0.00 0.00 0.00 0.00 0.00 0.00 0.00 0.00 0.00 0.00 0.00 0.00 0.01 0.01 0.01 0.00 0.00 0.00 0.01 0.02 0.05 0.02 0.03 0.03 0.05 0.05 0.06 0.05 0.07 0.07 0.12 0.14 0.16 0.16 0.18 0.20 0.20 0.17 0.13 0.13 0.13 0.18 0.16 0.15 0.14 0.10
0.00 0.00 0.00 0.00 0.00 0.00 0.01 0.02 0.01 0.00 0.00 0.00 0.00 0.00 0.00 0.01 0.02 0.02 0.00 0.00 0.01 0.02 0.04 0.08 0.03 0.02 0.03 0.04 0.05 0.05 0.04 0.05 0.08 0.12 0.15 0.15 0.14 0.19 0.17 0.15 0.12 0.12 0.13 0.13 0.22 0.24 0.20 0.16 0.11
0.00 0.00 0.00 0.01 0.00 0.00 0.01 0.02 0.01 0.00 0.00 0.00 0.00 0.00 0.01 0.02 0.05 0.01 0.00 0.01 0.01 0.02 0.02 0.03 0.02 0.02 0.02 0.03 0.04 0.04 0.04 0.05 0.07 0.08 0.13 0.12 0.13 0.15 0.17 0.12 0.11 0.13 0.12 0.16 0.22 0.25 0.23 0.20 0.15
0.00 0.00 0.01 0.02 0.01 0.00 0.01 0.01 0.01 0.00 0.00 0.01 0.01 0.01 0.01 0.02 0.02 0.01 0.00 0.00 0.01 0.01 0.01 0.02 0.02 0.02 0.02 0.02 0.03 0.03 0.04 0.07 0.06 0.06 0.08 0.10 0.11 0.11 0.17 0.15 0.13 0.14 0.13 0.17 0.19 0.20 0.21 0.21 0.20
0.00 0.00 0.01 0.03 0.02 0.01 0.01 0.01 0.00 0.00 0.00 0.01 0.01 0.01 0.01 0.01 0.01 0.01 0.00 0.00 0.00 0.00 0.01 0.01 0.01 0.02 0.02 0.02 0.03 0.04 0.06 0.08 0.06 0.08 0.10 0.10 0.12 0.11 0.15 0.17 0.17 0.18 0.19 0.22 0.23 0.22 0.20 0.18 0.16
0.02 0.01 0.00 0.01 0.02 0.02 0.01 0.01 0.00 0.00 0.00 0.01 0.00 0.00 0.00 0.00 0.00 0.01 0.01 0.00 0.00 0.01 0.01 0.01 0.01 0.01 0.02 0.03 0.03 0.04 0.08 0.09 0.10 0.11 0.11 0.11 0.11 0.10 0.14 0.13 0.18 0.18 0.18 0.20 0.17 0.16 0.15 0.14 0.11
0.02 0.01 0.01 0.01 0.01 0.01 0.01 0.01 0.01 0.00 0.01 0.00 0.00 0.00 0.00 0.00 0.00 0.00 0.01 0.00 0.00 0.01 0.01 0.01 0.01 0.01 0.02 0.03 0.03 0.03 0.06 0.07 0.09 0.07 0.09 0.10 0.09 0.06 0.09 0.10 0.12 0.14 0.14 0.15 0.15 0.14 0.14 0.14 0.13
0.00 0.01 0.01 0.01 0.01 0.01 0.00 0.01 0.01 0.01 0.01 0.00 0.00 0.00 0.00 0.00 0.00 0.00 0.00 0.00 0.00 0.00 0.00 0.01 0.01 0.01 0.01 0.02 0.02 0.03 0.04 0.04 0.05 0.05 0.08 0.08 0.06 0.03 0.05 0.09 0.08 0.09 0.10 0.12 0.13 0.13 0.14 0.15 0.15
0.00 0.00 0.00 0.00 0.00 0.01 0.01 0.01 0.01 0.02 0.04 0.01 0.00 0.00 0.00 0.00 0.00 0.00 0.00 0.00 0.00 0.00 0.00 0.01 0.01 0.01 0.01 0.02 0.02 0.03 0.02 0.03 0.04 0.04 0.05 0.06 0.05 0.03 0.04 0.05 0.05 0.08 0.09 0.11 0.11 0.12 0.12 0.12 0.12
0.00 0.00 0.00 0.00 0.00 0.01 0.00 0.01 0.01 0.03 0.06 0.01 0.00 0.00 0.00 0.00 0.00 0.00 0.00 0.00 0.00 0.00 0.00 0.01 0.01 0.02 0.01 0.01 0.02 0.03 0.03 0.03 0.03 0.02 0.03 0.04 0.04 0.04 0.04 0.05 0.05 0.06 0.07 0.09 0.11 0.10 0.08 0.09 0.09
0.00 0.00 0.00 0.00 0.01 0.02 0.01 0.01 0.01 0.01 0.01 0.01 0.00 0.00 0.00 0.00 0.00 0.00 0.00 0.00 0.00 0.00 0.00 0.00 0.01 0.01 0.01 0.01 0.01 0.03 0.02 0.03 0.03 0.03 0.03 0.03 0.05 0.06 0.07 0.07 0.06 0.06 0.07 0.08 0.09 0.09 0.08 0.08 0.09
0.00 0.01 0.03 0.03 0.02 0.01 0.01 0.00 0.01 0.02 0.00 0.00 0.00 0.00 0.00 0.01 0.01 0.00 0.00 0.00 0.00 0.00 0.01 0.01 0.01 0.01 0.01 0.01 0.01 0.01 0.02 0.02 0.03 0.03 0.03 0.04 0.06 0.05 0.04 0.04 0.06 0.07 0.07 0.07 0.08 0.09 0.09 0.08 0.08
0.00 0.00 0.03 0.05 0.03 0.01 0.01 0.01 0.02 0.01 0.00 0.00 0.00 0.00 0.00 0.01 0.01 0.00 0.00 0.00 0.00 0.00 0.01 0.01 0.01 0.01 0.01 0.00 0.01 0.01 0.01 0.02 0.02 0.03 0.02 0.04 0.05 0.06 0.05 0.04 0.04 0.04 0.05 0.07 0.09 0.09 0.09 0.09 0.08
0.00 0.00 0.01 0.02 0.02 0.02 0.02 0.03 0.04 0.01 0.00 0.00 0.00 0.00 0.00 0.00 0.00 0.00 0.00 0.00 0.00 0.00 0.01 0.01 0.01 0.01 0.01 0.00 0.01 0.01 0.01 0.01 0.02 0.02 0.02 0.03 0.06 0.08 0.11 0.09 0.06 0.05 0.05 0.06 0.07 0.08 0.08 0.07 0.07
0.00 0.00 0.00 0.01 0.03 0.03 0.04 0.04 0.04 0.01 0.01 0.00 0.01 0.00 0.00 0.00 0.00 0.00 0.00 0.00 0.00 0.00 0.01 0.01 0.01 0.01 0.01 0.01 0.01 0.01 0.01 0.02 0.02 0.02 0.02 0.02 0.04 0.08 0.11 0.14 0.12 0.09 0.07 0.07 0.07 0.07 0.07 0.07 0.08
0.00 0.00 0.00 0.00 0.01 0.02 0.03 0.05 0.02 0.01 0.01 0.00 0.00 0.00 0.00 0.00 0.00 0.00 0.00 0.00 0.00 0.01 0.01 0.02 0.01 0.01 0.01 0.01 0.01 0.01 0.01 0.02 0.02 0.03 0.02 0.02 0.03 0.05 0.06 0.10 0.11 0.09 0.08 0.08 0.07 0.07 0.07 0.06 0.06
0.00 0.00 0.00 0.01 0.01 0.01 0.02 0.04 0.04 0.02 0.01 0.00 0.00 0.00 0.00 0.00 0.00 0.00 0.00 0.00 0.00 0.01 0.02 0.02 0.02 0.01 0.01 0.01 0.01 0.01 0.01 0.01 0.02 0.02 0.02 0.02 0.03 0.04 0.05 0.06 0.06 0.06 0.06 0.06 0.06 0.06 0.06 0.05 0.05
MSLP
1005.40 1006.20 1006.93 1007.49 1007.78 1007.80 1007.60 1007.28 1006.96 1006.79 1006.85 1007.19 1007.77 1008.50 1009.29 1009.99 1010.52 1010.82 1010.89 1010.79 1010.61 1010.43 1010.33 1010.34 1010.47 1010.69 1010.93 1011.16 1011.34 1011.47 1011.56 1011.66 1011.80 1012.02 1012.31 1012.66 1013.03 1013.37 1013.64 1013.82 1013.93 1013.97 1014.00 1014.04 1014.13 1014.26 1014.42 1014.58 1014.71
1005.47 1006.31 1007.01 1007.45 1007.57 1007.38 1006.95 1006.41 1005.92 1005.60 1005.57 1005.85 1006.40 1007.13 1007.92 1008.65 1009.22 1009.59 1009.77 1009.83 1009.83 1009.86 1009.97 1010.19 1010.49 1010.84 1011.16 1011.43 1011.61 1011.71 1011.78 1011.86 1011.98 1012.19 1012.48 1012.83 1013.18 1013.49 1013.72 1013.87 1013.93 1013.95 1013.97 1014.03 1014.15 1014.32 1014.53 1014.74 1014.90
1005.60 1006.45 1007.09 1007.40 1007.35 1006.97 1006.35 1005.64 1005.01 1004.61 1004.53 1004.77 1005.30 1006.02 1006.80 1007.52 1008.10 1008.50 1008.75 1008.91 1009.06 1009.26 1009.56 1009.96 1010.42 1010.90 1011.32 1011.64 1011.85 1011.96 1012.03 1012.09 1012.21 1012.40 1012.67 1012.99 1013.30 1013.57 1013.76 1013.86 1013.90 1013.92 1013.95 1014.04 1014.20 1014.43 1014.68 1014.92 1015.11
1005.78 1006.60 1007.14 1007.32 1007.11 1006.58 1005.83 1005.03 1004.34 1003.91 1003.82 1004.07 1004.60 1005.30 1006.05 1006.74 1007.29 1007.69 1007.96 1008.18 1008.41 1008.73 1009.17 1009.71 1010.31 1010.89 1011.40 1011.79 1012.05 1012.20 1012.28 1012.36 1012.47 1012.65 1012.89 1013.17 1013.44 1013.66 1013.81 1013.89 1013.92 1013.94 1014.01 1014.14 1014.34 1014.60 1014.89 1015.15 1015.33
1005.94 1006.67 1007.10 1007.14 1006.81 1006.17 1005.37 1004.55 1003.89 1003.51 1003.47 1003.77 1004.31 1005.01 1005.72 1006.36 1006.86 1007.21 1007.46 1007.69 1007.96 1008.34 1008.85 1009.48 1010.16 1010.83 1011.42 1011.88 1012.20 1012.39 1012.51 1012.61 1012.74 1012.91 1013.13 1013.37 1013.60 1013.79 1013.91 1013.98 1014.02 1014.07 1014.16 1014.33 1014.57 1014.85 1015.14 1015.38 1015.54
1005.98 1006.60 1006.88 1006.80 1006.38 1005.70 1004.91 1004.16 1003.59 1003.33 1003.40 1003.76 1004.35 1005.05 1005.73 1006.32 1006.75 1007.04 1007.25 1007.44 1007.71 1008.10 1008.63 1009.29 1010.01 1010.72 1011.36 1011.87 1012.24 1012.49 1012.66 1012.80 1012.94 1013.12 1013.33 1013.55 1013.76 1013.93 1014.04 1014.12 1014.18 1014.26 1014.39 1014.59 1014.84 1015.11 1015.37 1015.57 1015.68
1005.86 1006.31 1006.45 1006.26 1005.78 1005.11 1004.40 1003.77 1003.36 1003.25 1003.45 1003.92 1004.56 1005.26 1005.92 1006.46 1006.83 1007.07 1007.23 1007.39 1007.62 1007.98 1008.50 1009.13 1009.84 1010.55 1011.20 1011.74 1012.15 1012.44 1012.66 1012.84 1013.02 1013.22 1013.43 1013.64 1013.84 1014.01 1014.13 1014.23 1014.33 1014.45 1014.61 1014.83 1015.07 1015.32 1015.53 1015.66 1015.70
1005.53 1005.81 1005.80 1005.51 1005.01 1004.40 1003.81 1003.34 1003.11 1003.17 1003.51 1004.07 1004.76 1005.47 1006.11 1006.62 1006.96 1007.16 1007.29 1007.42 1007.62 1007.95 1008.41 1009.00 1009.66 1010.33 1010.95 1011.48 1011.90 1012.23 1012.49 1012.71 1012.92 1013.14 1013.37 1013.59 1013.80 1013.98 1014.13 1014.27 1014.41 1014.57 1014.76 1014.98 1015.21 1015.41 1015.56 1015.62 1015.59
1005.03 1005.13 1004.99 1004.64 1004.15 1003.62 1003.16 1002.87 1002.81 1003.02 1003.48 1004.11 1004.83 1005.55 1006.18 1006.67 1007.01 1007.21 1007.34 1007.47 1007.66 1007.95 1008.36 1008.87 1009.45 1010.05 1010.61 1011.11 1011.52 1011.87 1012.15 1012.40 1012.65 1012.89 1013.13 1013.38 1013.60 1013.80 1013.99 1014.17 1014.35 1014.55 1014.77 1015.00 1015.21 1015.38 1015.47 1015.47 1015.38
1004.42 1004.38 1004.13 1003.75 1003.30 1002.87 1002.55 1002.42 1002.50 1002.83 1003.36 1004.02 1004.74 1005.44 1006.06 1006.55 1006.90 1007.14 1007.31 1007.46 1007.66 1007.94 1008.30 1008.74 1009.23 1009.74 1010.23 1010.67 1011.06 1011.39 1011.69 1011.96 1012.23 1012.50 1012.76 1013.02 1013.27 1013.50 1013.72 1013.95 1014.17 1014.41 1014.66 1014.89 1015.09 1015.23 1015.29 1015.26 1015.14
1003.82 1003.67 1003.36 1002.98 1002.59 1002.27 1002.08 1002.07 1002.26 1002.65 1003.19 1003.83 1004.51 1005.17 1005.76 1006.25 1006.63 1006.93 1007.16 1007.38 1007.62 1007.89 1008.22 1008.60 1009.01 1009.43 1009.84 1010.22 1010.57 1010.88 1011.18 1011.47 1011.75 1012.04 1012.32 1012.59 1012.86 1013.12 1013.38 1013.64 1013.91 1014.18 1014.45 1014.70 1014.90 1015.04 1015.09 1015.05 1014.94
1003.32 1003.11 1002.80 1002.45 1002.14 1001.93 1001.85 1001.93 1002.17 1002.55 1003.04 1003.61 1004.20 1004.79 1005.33 1005.82 1006.24 1006.60 1006.92 1007.22 1007.51 1007.80 1008.12 1008.45 1008.79 1009.14 1009.47 1009.80 1010.11 1010.41 1010.71 1011.00 1011.30 1011.59 1011.88 1012.17 1012.46 1012.74 1013.03 1013.32 1013.62 1013.92 1014.22 1014.49 1014.71 1014.85 1014.92 1014.90 1014.82
1003.03 1002.80 1002.51 1002.23 1002.02 1001.90 1001.91 1002.04 1002.27 1002.60 1002.99 1003.43 1003.90 1004.38 1004.86 1005.33 1005.77 1006.20 1006.60 1006.97 1007.32 1007.65 1007.97 1008.28 1008.58 1008.87 1009.17 1009.45 1009.74 1010.03 1010.33 1010.63 1010.93 1011.23 1011.53 1011.83 1012.12 1012.42 1012.73 1013.05 1013.38 1013.71 1014.03 1014.32 1014.56 1014.73 1014.84 1014.86 1014.84
1002.97 1002.77 1002.54 1002.34 1002.22 1002.20 1002.26 1002.40 1002.58 1002.81 1003.06 1003.33 1003.64 1003.99 1004.38 1004.81 1005.26 1005.73 1006.20 1006.64 1007.05 1007.43 1007.77 1008.07 1008.36 1008.64 1008.91 1009.19 1009.48 1009.77 1010.07 1010.38 1010.68 1010.98 1011.28 1011.58 1011.89 1012.20 1012.53 1012.87 1013.22 1013.57 1013.90 1014.21 1014.48 1014.69 1014.83 1014.92 1014.95
1003.12 1002.96 1002.80 1002.70 1002.68 1002.72 1002.81 1002.93 1003.03 1003.12 1003.20 1003.29 1003.42 1003.62 1003.91 1004.27 1004.72 1005.21 1005.72 1006.22 1006.68 1007.10 1007.47 1007.80 1008.10 1008.40 1008.69 1008.99 1009.29 1009.61 1009.92 1010.22 1010.52 1010.82 1011.12 1011.42 1011.73 1012.06 1012.40 1012.76 1013.13 1013.49 1013.85 1014.17 1014.46 1014.70 1014.88 1015.02 1015.11
1003.40 1003.28 1003.21 1003.20 1003.25 1003.35 1003.45 1003.51 1003.51 1003.44 1003.33 1003.23 1003.18 1003.23 1003.40 1003.70 1004.11 1004.61 1005.14 1005.68 1006.18 1006.64 1007.05 1007.43 1007.78 1008.12 1008.46 1008.81 1009.15 1009.49 1009.81 1010.12 1010.41 1010.69 1010.98 1011.27 1011.59 1011.93 1012.29 1012.67 1013.06 1013.45 1013.81 1014.15 1014.45 1014.71 1014.92 1015.10 1015.25
1003.71 1003.65 1003.65 1003.72 1003.84 1003.97 1004.05 1004.03 1003.90 1003.66 1003.37 1003.07 1002.85 1002.75 1002.81 1003.04 1003.42 1003.90 1004.45 1005.00 1005.54 1006.04 1006.51 1006.94 1007.37 1007.78 1008.20 1008.61 1009.00 1009.37 1009.70 1010.00 1010.27 1010.53 1010.79 1011.08 1011.40 1011.76 1012.15 1012.56 1012.97 1013.37 1013.75 1014.09 1014.40 1014.67 1014.91 1015.13 1015.32
1003.97 1003.96 1004.03 1004.18 1004.35 1004.49 1004.52 1004.41 1004.13 1003.71 1003.23 1002.75 1002.36 1002.13 1002.10 1002.26 1002.60 1003.08 1003.62 1004.20 1004.77 1005.32 1005.84 1006.35 1006.86 1007.37 1007.87 1008.36 1008.81 1009.21 1009.54 1009.83 1010.06 1010.29 1010.52 1010.79 1011.11 1011.49 1011.91 1012.36 1012.81 1013.24 1013.63 1013.98 1014.29 1014.56 1014.82 1015.06 1015.29
1004.11 1004.17 1004.32 1004.54 1004.75 1004.88 1004.84 1004.61 1004.17 1003.57 1002.90 1002.25 1001.71 1001.37 1001.25 1001.36 1001.68 1002.15 1002.70 1003.29 1003.89 1004.49 1005.07 1005.66 1006.27 1006.87 1007.47 1008.04 1008.55 1008.98 1009.32 1009.57 1009.77 1009.95 1010.14 1010.40 1010.72 1011.12 1011.58 1012.07 1012.56 1013.02 1013.44 1013.79 1014.10 1014.38 1014.64 1014.91 1015.17
1004.12 1004.26 1004.51 1004.80 1005.05 1005.15 1005.03 1004.66 1004.06 1003.27 1002.41 1001.60 1000.93 1000.49 1000.31 1000.39 1000.69 1001.16 1001.72 1002.34 1002.97 1003.60 1004.25 1004.92 1005.61 1006.32 1007.01 1007.66 1008.22 1008.68 1009.02 1009.25 1009.40 1009.53 1009.70 1009.92 1010.25 1010.67 1011.16 1011.70 1012.24 1012.74 1013.18 1013.55 1013.86 1014.14 1014.41 1014.68 1014.98
1004.01 1004.27 1004.63 1005.01 1005.29 1005.37 1005.16 1004.65 1003.86 1002.89 1001.86 1000.89 1000.11 999.59 999.37 999.43 999.73 1000.20 1000.78 1001.40 1002.06 1002.72 1003.42 1004.15 1004.92 1005.71 1006.49 1007.21 1007.83 1008.32 1008.67 1008.88 1009.00 1009.10 1009.22 1009.43 1009.75 1010.19 1010.72 1011.29 1011.87 1012.41 1012.87 1013.25 1013.57 1013.85 1014.13 1014.42 1014.75
1003.83 1004.24 1004.75 1005.22 1005.54 1005.59 1005.29 1004.64 1003.69 1002.54 1001.34 1000.24 999.37 998.79 998.54 998.59 998.89 999.37 999.94 1000.57 1001.22 1001.90 1002.61 1003.37 1004.19 1005.05 1005.90 1006.69 1007.37 1007.91 1008.27 1008.49 1008.60 1008.67 1008.78 1008.97 1009.28 1009.73 1010.28 1010.88 1011.49 1012.05 1012.53 1012.93 1013.25 1013.54 1013.82 1014.13 1014.49
1003.62 1004.22 1004.87 1005.46 1005.82 1005.84 1005.47 1004.69 1003.59 1002.29 1000.95 999.75 998.80 998.18 997.92 997.97 998.27 998.74 999.30 999.89 1000.51 1001.15 1001.84 1002.60 1003.43 1004.32 1005.22 1006.07 1006.82 1007.41 1007.83 1008.08 1008.20 1008.28 1008.38 1008.57 1008.88 1009.32 1009.87 1010.48 1011.10 1011.67 1012.16 1012.57 1012.90 1013.19 1013.48 1013.80 1014.18
1003.44 1004.21 1005.02 1005.70 1006.11 1006.12 1005.68 1004.80 1003.58 1002.17 1000.75 999.48 998.49 997.85 997.58 997.63 997.92 998.36 998.88 999.41 999.95 1000.51 1001.12 1001.82 1002.62 1003.51 1004.43 1005.33 1006.15 1006.81 1007.30 1007.62 1007.80 1007.91 1008.03 1008.22 1008.52 1008.95 1009.49 1010.08 1010.69 1011.25 1011.74 1012.15 1012.48 1012.77 1013.08 1013.42 1013.82
1003.27 1004.20 1005.13 1005.90 1006.35 1006.35 1005.87 1004.94 1003.66 1002.19 1000.72 999.43 998.45 997.82 997.56 997.61 997.88 998.27 998.70 999.12 999.54 999.96 1000.45 1001.04 1001.76 1002.60 1003.52 1004.45 1005.33 1006.08 1006.66 1007.08 1007.34 1007.52 1007.68 1007.89 1008.19 1008.59 1009.10 1009.66 1010.24 1010.78 1011.25 1011.64 1011.98 1012.28 1012.60 1012.96 1013.39
1003.11 1004.15 1005.17 1006.00 1006.47 1006.47 1005.98 1005.03 1003.74 1002.28 1000.84 999.60 998.65 998.07 997.83 997.88 998.11 998.43 998.75 999.03 999.28 999.52 999.83 1000.26 1000.86 1001.61 1002.49 1003.43 1004.36 1005.20 1005.90 1006.43 1006.80 1007.07 1007.29 1007.53 1007.83 1008.21 1008.67 1009.19 1009.72 1010.23 1010.67 1011.06 1011.39 1011.71 1012.04 1012.43 1012.88
1002.96 1004.04 1005.09 1005.93 1006.40 1006.42 1005.94 1005.02 1003.79 1002.40 1001.06 999.90 999.05 998.54 998.35 998.40 998.59 998.81 999.00 999.11 999.16 999.19 999.30 999.53 999.96 1000.60 1001.41 1002.33 1003.30 1004.21 1005.01 1005.66 1006.16 1006.53 1006.83 1007.11 1007.42 1007.78 1008.20 1008.67 1009.15 1009.62 1010.04 1010.41 1010.75 1011.08 1011.44 1011.85 1012.32
1002.80 1003.86 1004.88 1005.69 1006.14 1006.16 1005.72 1004.88 1003.76 1002.51 1001.31 1000.30 999.58 999.16 999.02 999.08 999.22 999.35 999.40 999.33 999.17 998.99 998.87 998.90 999.15 999.65 1000.36 1001.25 1002.22 1003.19 1004.08 1004.84 1005.45 1005.92 1006.30 1006.64 1006.96 1007.31 1007.70 1008.13 1008.57 1008.99 1009.39 1009.76 1010.11 1010.46 1010.84 1011.27 1011.76
1002.66 1003.64 1004.57 1005.31 1005.72 1005.75 1005.36 1004.63 1003.66 1002.59 1001.58 1000.75 1000.17 999.87 999.78 999.84 999.94 999.98 999.89 999.66 999.32 998.94 998.62 998.46 998.53 998.87 999.48 1000.30 1001.24 1002.24 1003.19 1004.03 1004.74 1005.31 1005.76 1006.15 1006.50 1006.86 1007.23 1007.63 1008.03 1008.44 1008.82 1009.19 1009.55 1009.92 1010.31 1010.75 1011.25
1002.60 1003.45 1004.26 1004.89 1005.25 1005.28 1004.96 1004.35 1003.55 1002.67 1001.86 1001.21 1000.78 1000.58 1000.55 1000.61 1000.66 1000.61 1000.41 1000.05 999.57 999.04 998.56 998.24 998.17 998.38 998.87 999.60 1000.50 1001.48 1002.45 1003.34 1004.11 1004.75 1005.28 1005.72 1006.10 1006.47 1006.84 1007.23 1007.62 1008.01 1008.39 1008.76 1009.12 1009.50 1009.89 1010.33 1010.81
Thickness
5834 5833 5830 5822 5803 5793 5792 5803 5812 5810 5811 5819 5820 5812 5799 5791 5782 5768 5793 5803 5802 5798 5795 5791 5790 5790 5789 5789 5789 5790 5790 5790 5789 5787 5786 5784 5783 5781 5780 5779 5777 5776 5774 5774 5773 5772 5771 5770 5769
5842 5840 5829 5815 5797 5787 5790 5807 5808 5811 5818 5824 5820 5814 5802 5794 5799 5795 5799 5803 5804 5800 5796 5792 5789 5789 5788 5788 5788 5789 5789 5789 5787 5786 5784 5783 5781 5780 5778 5777 5776 5774 5773 5772 5771 5770 5770 5769 5768
5845 5845 5824 5813 5805 5796 5795 5810 5814 5820 5827 5823 5813 5810 5800 5793 5799 5799 5804 5807 5805 5802 5796 5791 5789 5788 5788 5788 5788 5788 5788 5787 5786 5785 5783 5781 5779 5778 5777 5776 5775 5773 5772 5771 5770 5769 5768 5768 5767
5847 5840 5831 5818 5805 5814 5816 5821 5825 5821 5823 5824 5816 5801 5800 5806 5806 5806 5810 5809 5805 5801 5796 5791 5789 5788 5787 5787 5786 5786 5786 5785 5784 5783 5782 5780 5778 5777 5776 5775 5773 5772 5771 5770 5769 5768 5767 5767 5767
5849 5832 5821 5814 5813 5822 5831 5834 5832 5821 5818 5819 5813 5795 5792 5806 5812 5811 5810 5809 5805 5801 5796 5791 5788 5787 5787 5787 5786 5784 5784 5783 5782 5781 5780 5778 5777 5776 5775 5774 5773 5771 5770 5769 5768 5767 5767 5766 5765
5836 5835 5814 5809 5815 5826 5834 5839 5834 5824 5820 5819 5811 5798 5793 5808 5809 5810 5811 5809 5806 5801 5796 5791 5788 5787 5786 5785 5784 5783 5782 5781 5781 5780 5779 5777 5776 5775 5774 5773 5772 5771 5770 5768 5767 5766 5766 5765 5765
5833 5829 5820 5822 5819 5822 5832 5842 5833 5824 5819 5820 5819 5799 5795 5805 5809 5811 5810 5809 5806 5803 5798 5793 5790 5787 5785 5784 5783 5782 5781 5780 5780 5779 5777 5776 5774 5773 5773 5772 5771 5770 5769 5768 5767 5765 5764 5764 5764
5856 5839 5828 5828 5822 5821 5837 5841 5838 5829 5822 5832 5829 5803 5793 5804 5812 5811 5809 5806 5804 5802 5798 5795 5793 5790 5788 5785 5783 5782 5781 5780 5779 5778 5776 5775 5773 5772 5772 5772 5771 5770 5769 5768 5766 5765 5764 5763 5763
5867 5831 5822 5829 5827 5828 5841 5836 5838 5842 5831 5828 5828 5819 5813 5816 5814 5808 5802 5800 5799 5798 5798 5797 5795 5793 5791 5788 5784 5782 5781 5780 5779 5777 5776 5775 5774 5773 5772 5772 5771 5770 5769 5767 5766 5765 5764 5763 5763
5858 5828 5834 5849 5848 5842 5843 5839 5838 5833 5822 5818 5817 5818 5819 5816 5811 5804 5798 5795 5794 5795 5797 5797 5796 5795 5794 5792 5787 5784 5783 5781 5780 5778 5777 5776 5775 5775 5774 5772 5771 5770 5769 5767 5766 5765 5764 5763 5764
5858 5843 5852 5857 5859 5854 5845 5843 5846 5831 5816 5817 5813 5812 5815 5813 5809 5804 5800 5799 5797 5798 5797 5798 5797 5796 5795 5793 5790 5787 5785 5783 5782 5780 5779 5777 5776 5775 5774 5772 5771 5770 5769 5768 5766 5764 5764 5765 5765
5860 5859 5862 5860 5863 5857 5848 5846 5840 5833 5828 5833 5829 5823 5818 5813 5809 5806 5802 5801 5801 5799 5798 5798 5797 5795 5793 5792 5791 5789 5787 5784 5783 5781 5780 5779 5777 5776 5775 5773 5773 5771 5770 5769 5767 5766 5766 5765 5765
5858 5859 5865 5867 5865 5860 5853 5844 5839 5835 5840 5839 5833 5826 5820 5816 5812 5811 5810 5807 5803 5800 5799 5798 5796 5794 5793 5792 5791 5790 5788 5786 5784 5782 5780 5779 5777 5776 5775 5774 5773 5772 5771 5770 5768 5766 5766 5765 5765
5863 5864 5864 5865 5863 5860 5847 5843 5839 5835 5842 5835 5830 5825 5823 5819 5816 5813 5810 5807 5805 5802 5800 5799 5797 5795 5794 5792 5791 5790 5789 5787 5785 5783 5781 5780 5778 5776 5774 5773 5772 5771 5771 5770 5768 5766 5765 5764 5763
5871 5856 5855 5860 5861 5859 5851 5828 5833 5842 5843 5833 5830 5827 5824 5822 5819 5814 5812 5810 5808 5805 5803 5801 5799 5797 5795 5793 5792 5792 5790 5788 5786 5783 5781 5780 5778 5777 5775 5773 5771 5771 5770 5769 5767 5765 5764 5762 5761
5860 5847 5835 5852 5861 5860 5843 5814 5834 5848 5842 5832 5831 5828 5824 5822 5821 5820 5818 5815 5813 5809 5805 5803 5803 5799 5796 5794 5793 5793 5791 5789 5787 5785 5783 5781 5779 5778 5776 5774 5773 5772 5770 5769 5766 5764 5761 5760 5758
5842 5834 5833 5845 5862 5858 5843 5823 5838 5851 5844 5833 5831 5830 5826 5823 5823 5823 5822 5819 5816 5812 5807 5804 5802 5800 5797 5795 5794 5793 5792 5790 5788 5786 5784 5782 5780 5779 5777 5776 5774 5773 5771 5769 5767 5764 5761 5758 5756
5830 5836 5837 5839 5856 5855 5842 5835 5841 5851 5845 5838 5835 5833 5829 5825 5824 5825 5825 5823 5819 5814 5810 5806 5802 5800 5799 5796 5794 5793 5792 5790 5789 5786 5785 5783 5781 5780 5778 5776 5775 5773 5770 5767 5765 5762 5760 5758 5756
5846 5842 5838 5845 5861 5851 5842 5840 5843 5850 5846 5842 5838 5835 5831 5828 5831 5830 5827 5825 5820 5815 5810 5806 5802 5800 5798 5795 5792 5789 5788 5789 5788 5787 5785 5784 5782 5780 5778 5777 5774 5772 5769 5767 5765 5762 5758 5756 5756
5845 5836 5836 5847 5861 5852 5843 5842 5848 5849 5848 5849 5843 5838 5835 5831 5830 5828 5826 5824 5820 5815 5811 5808 5804 5802 5800 5797 5795 5793 5791 5789 5788 5787 5786 5784 5782 5780 5779 5776 5773 5771 5768 5766 5764 5761 5757 5756 5756
5842 5838 5839 5841 5851 5856 5844 5832 5838 5850 5854 5854 5852 5848 5843 5836 5831 5828 5826 5824 5821 5817 5813 5811 5806 5804 5801 5799 5797 5794 5791 5789 5787 5784 5783 5783 5782 5780 5778 5776 5774 5771 5768 5765 5763 5761 5758 5753 5754
5835 5853 5851 5846 5836 5830 5836 5811 5828 5841 5843 5846 5848 5848 5845 5842 5837 5831 5828 5825 5823 5821 5818 5814 5809 5805 5803 5800 5796 5792 5787 5784 5785 5785 5784 5783 5782 5780 5778 5776 5774 5771 5768 5765 5763 5761 5759 5755 5751
5848 5860 5853 5847 5838 5828 5834 5819 5822 5842 5836 5842 5848 5849 5848 5844 5841 5835 5831 5828 5828 5825 5821 5816 5810 5806 5804 5801 5798 5793 5790 5789 5788 5787 5784 5782 5781 5779 5778 5775 5773 5770 5767 5765 5763 5761 5758 5756 5753
5859 5852 5846 5844 5834 5806 5824 5815 5812 5834 5841 5846 5850 5851 5849 5847 5844 5839 5836 5832 5828 5827 5823 5818 5811 5806 5805 5802 5799 5795 5791 5790 5787 5785 5782 5781 5780 5779 5778 5776 5773 5770 5767 5765 5763 5760 5758 5756 5754
5848 5826 5803 5796 5797 5802 5832 5820 5821 5846 5858 5855 5851 5851 5850 5849 5845 5839 5834 5829 5827 5825 5823 5819 5812 5807 5805 5802 5799 5796 5793 5790 5787 5785 5783 5781 5779 5778 5777 5776 5773 5771 5768 5765 5763 5760 5758 5756 5754
5838 5827 5795 5778 5786 5807 5824 5814 5832 5859 5864 5864 5859 5855 5851 5848 5845 5841 5837 5832 5828 5826 5823 5819 5812 5808 5806 5803 5799 5797 5795 5792 5789 5787 5785 5783 5781 5779 5779 5776 5773 5771 5768 5766 5762 5760 5757 5756 5753
5829 5827 5832 5812 5805 5795 5803 5818 5833 5854 5854 5854 5852 5850 5846 5845 5844 5841 5838 5834 5830 5826 5824 5820 5814 5809 5806 5803 5800 5797 5795 5793 5790 5788 5786 5784 5782 5781 5779 5776 5773 5770 5768 5765 5762 5758 5757 5755 5753
5844 5836 5824 5806 5781 5775 5788 5801 5809 5824 5835 5843 5844 5842 5842 5843 5843 5840 5838 5835 5832 5828 5825 5822 5816 5810 5806 5803 5800 5798 5795 5793 5790 5787 5784 5782 5781 5779 5777 5774 5771 5769 5766 5764 5761 5758 5756 5753 5751
5829 5824 5820 5813 5805 5785 5773 5791 5833 5832 5836 5837 5841 5842 5840 5840 5840 5838 5836 5834 5831 5828 5824 5820 5816 5811 5806 5803 5800 5798 5795 5792 5789 5785 5783 5781 5779 5777 5774 5772 5769 5766 5764 5761 5758 5756 5754 5751 5748
5834 5826 5820 5797 5791 5796 5786 5790 5840 5839 5840 5840 5839 5839 5840 5839 5838 5836 5834 5831 5827 5824 5822 5819 5815 5810 5806 5803 5800 5797 5794 5791 5787 5784 5782 5780 5777 5774 5772 5769 5766 5764 5762 5760 5757 5754 5752 5749 5746